EW3714 Weather Reports


Display with metric or nautical units.
time (UTC)temp
F
wind
direction
speed
MPH
gust
MPH
rain 1hr
in
rain 24hr
in
rain mn
in
humidity
%
barometer
mb
20260906214215 93 230 0.0 2.0 0.00 0.00 0.00 56 1012.8
20260906213713 92 343 0.0 2.0 0.00 0.00 0.00 60 1012.8
20260906213208 91 32 1.0 2.0 0.00 0.00 0.00 60 1012.9
20260906212705 90 214 1.0 1.0 0.00 0.00 0.00 61 1012.8
20260906212201 90 246 0.0 1.0 0.00 0.00 0.00 62 1012.9
20260906211701 90 250 0.0 2.0 0.00 0.00 0.00 63 1012.9
20260906211155 90 248 0.0 2.0 0.00 0.00 0.00 63 1013.1
20260906210651 90 231 0.0 2.0 0.00 0.00 0.00 62 1013.2
20260906210151 90 300 0.0 2.0 0.00 0.00 0.00 60 1012.9
20260906205647 90 269 0.0 2.0 0.00 0.00 0.00 59 1013.1
20260906205143 91 213 0.0 1.0 0.00 0.00 0.00 60 1013.3
20260906204643 91 217 1.0 3.0 0.00 0.00 0.00 57 1013.5
20260906204137 93 248 2.0 2.0 0.00 0.00 0.00 54 1013.4
20260906203637 95 285 1.0 3.0 0.00 0.00 0.00 52 1013.5
20260906203132 97 322 1.0 2.0 0.00 0.00 0.00 47 1013.4
20260906202629 96 193 0.0 2.0 0.00 0.00 0.00 45 1013.3
20260906202128 97 343 0.0 1.0 0.00 0.00 0.00 45 1013.4
20260906201623 97 231 1.0 1.0 0.00 0.00 0.00 45 1013.4
20260906201122 97 25 0.0 2.0 0.00 0.00 0.00 44 1013.3
20260906200619 96 258 0.0 1.0 0.00 0.00 0.00 45 1013.4
20260906200114 96 237 0.0 2.0 0.00 0.00 0.00 44 1013.6
20260906195609 96 335 0.0 2.0 0.00 0.00 0.00 44 1013.6
20260906195106 97 80 0.0 1.0 0.00 0.00 0.00 44 1013.7
20260906194601 97 289 0.0 2.0 0.00 0.00 0.00 42 1013.8
20260906194057 98 313 2.0 2.0 0.00 0.00 0.00 43 1013.9
20260906193556 95 77 0.0 3.0 0.00 0.00 0.00 44 1013.9
20260906193052 97 278 0.0 1.0 0.00 0.00 0.00 43 1014.0
20260906192547 98 326 0.0 2.0 0.00 0.00 0.00 42 1014.1
20260906192046 100 129 3.0 3.0 0.00 0.00 0.00 40 1014.0
20260906191542 100 28 0.0 2.0 0.00 0.00 0.00 40 1014.0
20260906191041 99 342 2.0 2.0 0.00 0.00 0.00 42 1013.9
20260906190540 98 26 2.0 2.0 0.00 0.00 0.00 42 1014.1
20260906190035 99 282 0.0 3.0 0.00 0.00 0.00 41 1014.2
20260906185534 98 355 0.0 1.0 0.00 0.00 0.00 44 1014.3
20260906185033 98 321 3.0 3.0 0.00 0.00 0.00 43 1014.2
20260906184528 97 242 0.0 2.0 0.00 0.00 0.00 45 1014.4
20260906184024 97 317 2.0 2.0 0.00 0.00 0.00 44 1014.4
20260906183520 95 353 1.0 2.0 0.00 0.00 0.00 45 1014.5
20260906183015 96 245 0.0 3.0 0.00 0.00 0.00 43 1014.6
20260906182510 95 256 2.0 2.0 0.00 0.00 0.00 42 1014.8
20260906182007 95 347 0.0 2.0 0.00 0.00 0.00 43 1014.8
20260906181502 94 208 2.0 3.0 0.00 0.00 0.00 44 1014.8
20260906180957 95 339 2.0 2.0 0.00 0.00 0.00 42 1015.1
20260906180452 94 210 0.0 2.0 0.00 0.00 0.00 48 1015.1
20260906175950 93 341 0.0 1.0 0.00 0.00 0.00 53 1015.1
20260906175445 91 157 0.0 2.0 0.00 0.00 0.00 58 1015.3
20260906174944 92 256 0.0 1.0 0.00 0.00 0.00 57 1015.3
20260906174443 91 339 0.0 2.0 0.00 0.00 0.00 59 1015.4
20260906173938 89 293 0.0 1.0 0.00 0.00 0.00 61 1015.5
20260906173433 88 147 0.0 2.0 0.00 0.00 0.00 62 1015.5
20260906172933 88 344 0.0 2.0 0.00 0.00 0.00 63 1015.5
20260906172430 87 211 0.0 2.0 0.00 0.00 0.00 64 1015.7
20260906171924 87 230 0.0 2.0 0.00 0.00 0.00 62 1015.7
20260906171419 88 272 0.0 2.0 0.00 0.00 0.00 64 1016.0
20260906170915 89 310 0.0 2.0 0.00 0.00 0.00 59 1016.0
20260906170411 88 304 1.0 3.0 0.00 0.00 0.00 59 1016.0
20260906165907 86 358 0.0 1.0 0.00 0.00 0.00 66 1016.1
20260906165406 86 250 0.0 2.0 0.00 0.00 0.00 69 1016.3
20260906164901 85 312 1.0 1.0 0.00 0.00 0.00 72 1016.3
20260906164400 85 297 0.0 1.0 0.00 0.00 0.00 73 1016.2
20260906163856 85 31 1.0 1.0 0.00 0.00 0.00 74 1016.4
20260906163352 84 89 0.0 1.0 0.00 0.00 0.00 75 1016.3
20260906162850 84 322 0.0 0.0 0.00 0.00 0.00 78 1016.2
20260906162349 84 39 0.0 1.0 0.00 0.00 0.00 79 1016.4
20260906161844 85 61 0.0 1.0 0.00 0.00 0.00 74 1016.3
20260906161344 84 11 1.0 2.0 0.00 0.00 0.00 73 1016.2
20260906160843 84 329 0.0 3.0 0.00 0.00 0.00 74 1016.2
20260906160337 84 75 0.0 1.0 0.00 0.00 0.00 75 1016.4
20260906155835 84 13 1.0 2.0 0.00 0.00 0.00 74 1016.3
20260906155329 84 37 0.0 2.0 0.00 0.00 0.00 75 1016.1
20260906154825 85 343 1.0 1.0 0.00 0.00 0.00 77 1016.1
20260906154320 85 309 0.0 2.0 0.00 0.00 0.00 76 1016.1
20260906153819 85 352 0.0 1.0 0.00 0.00 0.00 76 1015.9
20260906153318 84 129 0.0 2.0 0.00 0.00 0.00 77 1016.1
20260906152813 84 297 0.0 1.0 0.00 0.00 0.00 77 1015.8
20260906152308 84 19 0.0 1.0 0.00 0.00 0.00 76 1016.0
20260906151808 84 38 1.0 1.0 0.00 0.00 0.00 77 1015.8
20260906151303 84 226 0.0 2.0 0.00 0.00 0.00 76 1015.7
20260906150759 85 49 1.0 2.0 0.00 0.00 0.00 76 1015.7
20260906150254 85 230 0.0 1.0 0.00 0.00 0.00 75 1015.7
20260906145753 85 338 0.0 2.0 0.00 0.00 0.00 76 1015.5
20260906145251 84 55 0.0 1.0 0.00 0.00 0.00 77 1015.5
20260906144747 84 42 0.0 2.0 0.00 0.00 0.00 78 1015.5
20260906144242 84 287 0.0 2.0 0.00 0.00 0.00 78 1015.6
20260906143741 83 44 0.0 2.0 0.00 0.00 0.00 79 1015.5
20260906143238 83 25 0.0 1.0 0.00 0.00 0.00 80 1015.3
20260906142738 83 50 0.0 1.0 0.00 0.00 0.00 80 1015.6
20260906142233 82 166 0.0 0.0 0.00 0.00 0.00 80 1015.7
20260906141732 82 322 0.0 0.0 0.00 0.00 0.00 80 1015.5
20260906141227 82 343 0.0 1.0 0.00 0.00 0.00 80 1015.4
20260906140727 82 343 0.0 2.0 0.00 0.00 0.00 80 1015.4
20260906140221 82 25 0.0 1.0 0.00 0.00 0.00 80 1015.4
20260906135718 82 49 0.0 2.0 0.00 0.00 0.00 80 1015.4
20260906135214 82 322 0.0 1.0 0.00 0.00 0.00 81 1015.2
20260906134709 82 359 1.0 1.0 0.00 0.00 0.00 81 1015.2
20260906134205 82 45 0.0 2.0 0.00 0.00 0.00 81 1015.3
20260906133700 81 30 0.0 0.0 0.00 0.00 0.00 81 1015.3
20260906133155 81 205 0.0 1.0 0.00 0.00 0.00 81 1015.4
20260906132651 81 255 0.0 1.0 0.00 0.00 0.00 81 1015.0
20260906132146 81 37 0.0 1.0 0.00 0.00 0.00 83 1015.0
20260906131641 81 49 0.0 0.0 0.00 0.00 0.00 82 1014.8
20260906131137 80 135 0.0 2.0 0.00 0.00 0.00 82 1014.6
20260906130632 80 52 0.0 1.0 0.00 0.00 0.00 83 1014.6
20260906130127 80 66 0.0 1.0 0.00 0.00 0.00 83 1014.5
20260906125625 80 75 0.0 1.0 0.00 0.00 0.00 84 1014.6
20260906125123 79 58 0.0 1.0 0.00 0.00 0.00 84 1014.5
20260906124619 79 69 0.0 1.0 0.00 0.00 0.00 84 1014.5
20260906124114 79 37 0.0 1.0 0.00 0.00 0.00 84 1014.5
20260906123614 79 333 0.0 0.0 0.00 0.00 0.00 84 1014.4
20260906123109 79 76 0.0 1.0 0.00 0.00 0.00 84 1014.2
20260906122608 79 25 0.0 0.0 0.00 0.00 0.00 84 1014.0
20260906122104 79 17 0.0 1.0 0.00 0.00 0.00 84 1014.1
20260906121600 79 257 0.0 0.0 0.00 0.00 0.00 83 1014.0
20260906121056 79 327 1.0 2.0 0.00 0.00 0.00 83 1013.9
20260906120551 79 358 0.0 1.0 0.00 0.00 0.00 82 1013.8
20260906120049 79 291 0.0 0.0 0.00 0.00 0.00 83 1013.8
20260906115549 80 32 0.0 0.0 0.00 0.00 0.00 83 1013.7
20260906115044 80 297 0.0 1.0 0.00 0.00 0.00 82 1013.5
20260906114543 80 344 1.0 1.0 0.00 0.00 0.00 82 1013.6
20260906114039 80 351 1.0 1.0 0.00 0.00 0.00 81 1013.4
20260906113538 80 17 0.0 0.0 0.00 0.00 0.00 81 1013.4
20260906113033 80 50 0.0 0.0 0.00 0.00 0.00 81 1013.3
20260906112528 80 329 0.0 0.0 0.00 0.00 0.00 81 1013.1
20260906112025 80 37 0.0 0.0 0.00 0.00 0.00 81 1012.9
20260906111524 80 25 0.0 0.0 0.00 0.00 0.00 80 1013.1
20260906111019 80 230 0.0 1.0 0.00 0.00 0.00 80 1012.9
20260906110514 80 205 0.0 0.0 0.00 0.00 0.00 80 1012.9
20260906110013 80 32 0.0 0.0 0.00 0.00 0.00 80 1012.8
20260906105509 80 32 0.0 0.0 0.00 0.00 0.00 80 1012.9
20260906105005 81 44 0.0 0.0 0.00 0.00 0.00 80 1013.0
20260906104503 81 44 0.0 0.0 0.00 0.00 0.00 79 1013.2
20260906104003 81 44 0.0 0.0 0.00 0.00 0.00 79 1013.3
20260906103501 81 44 0.0 1.0 0.00 0.00 0.00 80 1013.1
20260906102956 81 343 0.0 0.0 0.00 0.00 0.00 79 1013.0
20260906102451 81 50 0.0 0.0 0.00 0.00 0.00 79 1012.8
20260906101950 81 92 0.0 1.0 0.00 0.00 0.00 79 1012.8
20260906101446 81 66 0.0 0.0 0.00 0.00 0.00 79 1012.7
20260906100946 81 157 0.0 0.0 0.00 0.00 0.00 79 1012.9
20260906100441 81 135 0.0 0.0 0.00 0.00 0.00 79 1012.8
20260906095935 81 32 0.0 2.0 0.00 0.00 0.00 79 1013.0
20260906095431 81 117 0.0 1.0 0.00 0.00 0.00 78 1012.9
20260906094926 81 117 0.0 1.0 0.00 0.00 0.00 78 1013.0
20260906094420 81 135 0.0 1.0 0.00 0.00 0.00 78 1013.0
20260906093916 81 49 0.0 2.0 0.00 0.00 0.00 79 1013.1
20260906093413 81 202 0.0 2.0 0.00 0.00 0.00 78 1013.1
20260906092912 81 102 0.0 0.0 0.00 0.00 0.00 78 1012.9
20260906092412 81 19 0.0 0.0 0.00 0.00 0.00 77 1012.9
20260906091908 81 129 0.0 0.0 0.00 0.00 0.00 77 1012.8
20260906091403 81 66 0.0 0.0 0.00 0.00 0.00 77 1012.8
20260906090900 81 42 1.0 1.0 0.00 0.00 0.00 78 1012.9
20260906090359 81 104 0.0 0.0 0.00 0.00 0.00 77 1012.7
20260906085854 82 104 0.0 0.0 0.00 0.00 0.00 77 1013.1
20260906085353 82 135 0.0 1.0 0.00 0.00 0.00 77 1012.9
20260906084848 82 60 0.0 1.0 0.00 0.00 0.00 77 1012.9
20260906084348 82 126 0.0 0.0 0.00 0.00 0.00 77 1013.0
20260906083842 82 62 0.0 2.0 0.00 0.00 0.00 77 1012.9
20260906083338 82 20 0.0 1.0 0.00 0.00 0.00 77 1012.8
20260906082838 82 75 0.0 1.0 0.00 0.00 0.00 76 1013.0
20260906082333 82 212 0.0 0.0 0.00 0.00 0.00 76 1013.0
20260906081829 82 89 0.0 1.0 0.00 0.00 0.00 76 1013.0
20260906081325 82 37 0.0 2.0 0.00 0.00 0.00 75 1012.9
20260906080820 82 343 0.0 2.0 0.00 0.00 0.00 76 1013.0
20260906080317 83 89 0.0 1.0 0.00 0.00 0.00 75 1013.0
20260906075816 83 75 0.0 0.0 0.00 0.00 0.00 75 1013.1
20260906075315 83 67 1.0 1.0 0.00 0.00 0.00 75 1013.1
20260906074811 83 66 0.0 2.0 0.00 0.00 0.00 76 1013.3
20260906074310 83 46 1.0 2.0 0.00 0.00 0.00 75 1013.4
20260906073809 83 72 0.0 3.0 0.00 0.00 0.00 74 1013.4
20260906073304 83 69 2.0 2.0 0.00 0.00 0.00 75 1013.4
20260906072801 83 141 0.0 0.0 0.00 0.00 0.00 74 1013.5
20260906072256 83 50 0.0 1.0 0.00 0.00 0.00 74 1013.5
20260906071752 84 53 1.0 1.0 0.00 0.00 0.00 74 1013.6
20260906071252 84 322 0.0 2.0 0.00 0.00 0.00 73 1013.7
20260906070749 84 8 1.0 1.0 0.00 0.00 0.00 73 1013.7
20260906070244 84 35 0.0 1.0 0.00 0.00 0.00 73 1013.6
20260906065743 84 79 1.0 2.0 0.00 0.00 0.00 73 1013.8
20260906065239 84 130 0.0 2.0 0.00 0.00 0.00 72 1013.6
20260906064735 84 183 0.0 2.0 0.00 0.00 0.00 72 1013.7
20260906064230 84 15 0.0 2.0 0.00 0.00 0.00 73 1013.8
20260906063725 84 339 0.0 1.0 0.00 0.00 0.00 71 1013.8
20260906063221 84 149 1.0 2.0 0.00 0.00 0.00 71 1013.8
20260906062716 84 0 0.0 1.0 0.00 0.00 0.00 71 1014.1
20260906062215 85 304 0.0 1.0 0.00 0.00 0.00 71 1013.9
20260906061711 85 11 2.0 2.0 0.00 0.00 0.00 71 1014.1
20260906061207 85 76 0.0 2.0 0.00 0.00 0.00 71 1014.2
20260906060702 85 63 0.0 2.0 0.00 0.00 0.00 70 1014.2
20260906060159 85 25 0.0 1.0 0.00 0.00 0.00 70 1014.1
20260906055655 85 180 0.0 1.0 0.00 0.00 0.00 70 1014.1
20260906055150 85 1 1.0 1.0 0.00 0.00 0.00 70 1014.0
20260906054645 85 195 0.0 3.0 0.00 0.00 0.00 70 1014.0
20260906054140 86 33 0.0 1.0 0.00 0.00 0.00 70 1014.1
20260906053637 86 217 0.0 0.0 0.00 0.00 0.00 69 1013.9
20260906053137 86 214 0.0 0.0 0.00 0.00 0.00 69 1014.0
20260906052633 86 25 0.0 1.0 0.00 0.00 0.00 69 1013.8
20260906052129 86 37 0.0 0.0 0.00 0.00 0.00 69 1013.9
20260906051626 86 37 0.0 0.0 0.00 0.00 0.00 69 1013.9
20260906051125 86 11 0.0 1.0 0.00 0.00 0.00 69 1014.0
20260906050621 86 31 1.0 2.0 0.00 0.00 0.00 69 1014.1
20260906050116 86 331 0.0 2.0 0.00 0.00 0.00 68 1014.1
20260906045614 86 4 0.0 2.0 0.00 0.00 0.00 68 1014.2
20260906045110 86 293 0.0 0.0 0.00 0.00 0.00 68 1014.3
20260906044606 86 186 0.0 2.0 0.00 0.00 0.00 67 1014.2
20260906044100 86 344 0.0 3.0 0.00 0.00 0.00 68 1014.1
20260906043557 86 336 0.0 2.0 0.00 0.00 0.00 67 1014.2
20260906043052 86 295 0.0 1.0 0.00 0.00 0.00 67 1014.1
20260906042551 86 321 0.0 3.0 0.00 0.00 0.00 67 1014.0
20260906042046 87 336 0.0 2.0 0.00 0.00 0.00 66 1014.1
20260906041542 87 76 0.0 1.0 0.00 0.00 0.00 67 1013.8
20260906041037 87 15 0.0 0.0 0.00 0.00 0.00 66 1014.0
20260906040532 87 322 0.0 1.0 0.00 0.00 0.00 66 1014.0
20260906040028 87 269 0.0 1.0 0.00 0.00 0.00 65 1014.0
20260906035522 87 213 0.0 2.0 0.00 0.00 0.00 65 1014.1
20260906035019 87 203 0.0 2.0 0.00 0.00 0.00 64 1013.9
20260906034518 87 320 0.0 1.0 0.00 0.00 0.00 64 1013.9
20260906034013 87 65 1.0 2.0 0.00 0.00 0.00 63 1014.1
20260906033508 87 0 0.0 1.0 0.00 0.00 0.00 62 1014.0
20260906033004 87 347 0.0 1.0 0.00 0.00 0.00 61 1014.2
20260906032500 88 315 0.0 0.0 0.00 0.00 0.00 62 1013.9
20260906031959 88 212 0.0 0.0 0.00 0.00 0.00 62 1013.8
20260906031456 88 15 0.0 0.0 0.00 0.00 0.00 60 1013.7
20260906030951 88 339 0.0 1.0 0.00 0.00 0.00 60 1013.6
20260906030445 88 333 0.0 0.0 0.00 0.00 0.00 59 1013.3
20260906025940 88 23 0.0 0.0 0.00 0.00 0.00 60 1013.4
20260906025439 89 147 0.0 1.0 0.00 0.00 0.00 59 1013.4
20260906024938 89 15 0.0 1.0 0.00 0.00 0.00 58 1013.2
20260906024438 89 233 0.0 2.0 0.00 0.00 0.00 58 1013.1
20260906023933 89 25 0.0 2.0 0.00 0.00 0.00 58 1012.9
20260906023430 89 343 0.0 1.0 0.00 0.00 0.00 57 1012.8
20260906022930 89 269 0.0 1.0 0.00 0.00 0.00 59 1012.4
20260906022425 90 25 0.0 2.0 0.00 0.00 0.00 57 1012.5
20260906021920 90 238 1.0 2.0 0.00 0.00 0.00 57 1012.2
20260906021415 90 311 0.0 2.0 0.00 0.00 0.00 57 1012.2
20260906020914 90 3 0.0 2.0 0.00 0.00 0.00 56 1012.1
20260906020409 90 37 0.0 1.0 0.00 0.00 0.00 57 1011.9
20260906015903 90 297 0.0 1.0 0.00 0.00 0.00 56 1012.2
20260906015403 90 32 0.0 0.0 0.00 0.00 0.00 55 1011.9
20260906014903 91 44 0.0 1.0 0.00 0.00 0.00 56 1011.9
20260906014402 91 11 0.0 2.0 0.00 0.00 0.00 56 1011.9
20260906013859 91 11 0.0 1.0 0.00 0.00 0.00 55 1011.9
20260906013354 91 297 0.0 2.0 0.00 0.00 0.00 54 1011.9
20260906012849 91 105 0.0 1.0 0.00 0.00 0.00 54 1011.8
20260906012344 91 186 0.0 1.0 0.00 0.00 0.00 53 1011.8
20260906011844 92 343 0.0 0.0 0.00 0.00 0.00 53 1011.6
20260906011339 92 336 0.0 1.0 0.00 0.00 0.00 52 1011.9
20260906010835 92 326 0.0 1.0 0.00 0.00 0.00 51 1011.7
20260906010331 93 343 0.0 1.0 0.00 0.00 0.00 51 1011.7
20260906005826 93 0 0.0 1.0 0.00 0.00 0.00 51 1011.6
20260906005325 93 333 0.0 2.0 0.00 0.00 0.00 49 1011.6
20260906004824 94 5 0.0 2.0 0.00 0.00 0.00 48 1011.7
20260906004324 94 343 0.0 1.0 0.00 0.00 0.00 48 1011.6
20260906003819 95 330 2.0 2.0 0.00 0.00 0.00 48 1011.4
20260906003315 95 0 0.0 1.0 0.00 0.00 0.00 46 1011.6
20260906002810 95 10 0.0 1.0 0.00 0.00 0.00 45 1011.4
20260906002309 96 3 0.0 1.0 0.00 0.00 0.00 47 1011.3
20260906001805 96 309 0.0 1.0 0.00 0.00 0.00 45 1011.5
20260906001300 96 352 2.0 2.0 0.00 0.00 0.00 43 1011.5
20260906000756 96 6 0.0 1.0 0.00 0.00 0.00 44 1011.3
20260906000256 96 37 0.0 2.0 0.00 0.00 0.00 43 1011.4
20260905235750 96 322 0.0 0.0 0.00 0.00 0.00 44 1011.3
20260905235250 96 1 1.0 1.0 0.00 0.00 0.00 44 1011.3
20260905234746 97 297 0.0 0.0 0.00 0.00 0.00 42 1011.4
20260905234240 97 50 0.0 1.0 0.00 0.00 0.00 42 1011.3
20260905233737 97 333 0.0 2.0 0.00 0.00 0.00 42 1011.1
20260905233236 97 322 0.0 1.0 0.00 0.00 0.00 43 1011.2
20260905232735 97 257 0.0 2.0 0.00 0.00 0.00 42 1011.3
20260905232231 96 297 0.0 0.0 0.00 0.00 0.00 41 1011.2
20260905231727 96 297 0.0 1.0 0.00 0.00 0.00 43 1011.3
20260905231222 96 0 0.0 1.0 0.00 0.00 0.00 43 1011.3
20260905230719 96 241 1.0 1.0 0.00 0.00 0.00 42 1011.2
20260905230216 97 235 0.0 1.0 0.00 0.00 0.00 42 1011.3
20260905225716 97 332 1.0 2.0 0.00 0.00 0.00 42 1011.3
20260905225212 98 327 0.0 2.0 0.00 0.00 0.00 41 1011.2
20260905224710 98 25 0.0 0.0 0.00 0.00 0.00 41 1011.1
20260905224206 99 305 1.0 1.0 0.00 0.00 0.00 40 1011.4
20260905223702 98 38 0.0 2.0 0.00 0.00 0.00 39 1011.2
20260905223159 99 3 0.0 2.0 0.00 0.00 0.00 40 1011.2
20260905222654 98 284 0.0 1.0 0.00 0.00 0.00 39 1011.2
20260905222154 99 309 0.0 2.0 0.00 0.00 0.00 39 1011.2
20260905221649 99 341 1.0 1.0 0.00 0.00 0.00 39 1011.3
20260905221146 98 315 0.0 2.0 0.00 0.00 0.00 39 1011.4
20260905220642 98 105 1.0 2.0 0.00 0.00 0.00 39 1011.4
20260905220138 98 345 0.0 2.0 0.00 0.00 0.00 40 1011.5
20260905215637 97 6 0.0 1.0 0.00 0.00 0.00 39 1011.4
20260905215133 98 334 1.0 2.0 0.00 0.00 0.00 39 1011.6
20260905214629 97 224 1.0 1.0 0.00 0.00 0.00 40 1011.5